This demonstration page uses our WeatherBlox Daily Observations layout. Learn more.

Left ArrowRight Arrow

Hourly Observations for April 8, 2017

Temp ( °F °C ) Dew Point ( °F °C ) Humidity (%) Winds ( mph kmh ) Pressure ( in mb ) Visibility ( mi km ) Precip ( " mm )
12:53 am 00:53 Clear 46 7.8 34 1.1 63 63 SW 15 24 29.57 1001 10 16 0.00 0.00
1:53 am 01:53 Clear 41 5 34 1.1 76 76 WSW 13 20 29.57 1002 10 16 0.00 0.00
2:53 am 02:53 Clear 43 6.1 31 -0.6 63 63 SW 16 26 29.56 1001 10 16 0.00 0.00
3:53 am 03:53 Clear 44 6.7 29 -1.7 55 55 SW 20 31 29.58 1002 10 16 0.00 0.00
4:53 am 04:53 Clear 42 5.6 28 -2.2 58 58 W 10 17 29.63 1003 10 16 0.00 0.00
5:53 am 05:53 Clear 40 4.4 28 -2.2 63 63 W 12 19 29.64 1004 10 16 0.00 0.00
6:53 am 06:53 Sunny 36 2.2 29 -1.7 76 76 WSW 7 11 29.64 1004 10 16 0.00 0.00
7:53 am 07:53 Sunny 41 5 31 -0.6 67 67 SW 10 17 29.65 1004 10 16 0.00 0.00
8:53 am 08:53 Sunny 46 7.8 32 0 58 58 WSW 12 19 29.65 1004 10 16 0.00 0.00
9:53 am 09:53 Sunny 50 10 30 -1.1 46 46 WSW 17 28 29.63 1004 10 16 0.00 0.00
10:53 am 10:53 Sunny 54 12.2 30 -1.1 40 40 WSW 18 30 29.62 1003 10 16 0.00 0.00
11:53 am 11:53 Sunny 59 15 24 -4.4 26 26 W 21 33 29.60 1002 10 16 0.00 0.00
12:53 pm 12:53 Sunny 61 16.1 23 -5 23 23 W 22 35 29.58 1002 10 16 0.00 0.00
1:53 pm 13:53 Sunny 62 16.7 22 -5.6 21 21 WNW 10 17 29.57 1001 10 16 0.00 0.00
2:53 pm 14:53 Sunny 63 17.2 22 -5.6 21 21 WSW 15 24 29.55 1001 10 16 0.00 0.00
3:53 pm 15:53 Sunny 64 17.8 20 -6.7 18 18 WNW 14 22 29.54 1000 10 16 0.00 0.00
4:53 pm 16:53 Sunny 64 17.8 19 -7.2 18 18 WNW 16 26 29.54 1000 10 16 0.00 0.00
5:53 pm 17:53 Sunny 64 17.8 17 -8.3 16 16 NW 14 22 29.54 1001 10 16 0.00 0.00
6:53 pm 18:53 Sunny 59 15 17 -8.3 19 19 NNW 10 17 29.57 1002 10 16 0.00 0.00
7:53 pm 19:53 Sunny 54 12.2 18 -7.8 24 24 N 8 13 29.59 1002 10 16 0.00 0.00
8:53 pm 20:53 Clear 53 11.7 20 -6.7 27 27 N 10 17 29.62 1003 10 16 0.00 0.00
9:53 pm 21:53 Clear 50 10 31 -0.6 48 48 ENE 12 19 29.64 1004 10 16 0.00 0.00
10:53 pm 22:53 Clear 48 8.9 32 0 54 54 ENE 12 19 29.67 1005 10 16 0.00 0.00
11:53 pm 23:53 Clear 46 7.8 34 1.1 63 63 ENE 17 28 29.68 1005 10 16 0.00 0.00

Powered by AerisWeather